STARLINK-30063 (55713 NORAD) Tracking and Keplerian Element Data

This shows tracking and keplerian element data for the satellite.

Feedback or suggestion? Click here.




ElementValue
Catalog55713
NameSTARLINK-30063
Epoch Orbit513
Epoch Day85.16667824
Epoch Year2023
RAAN126.9085
Inclination43.0003
Eccentricity0.0001676
Argument of Perigee246.8148
Mean Anonmoly340.2465
Mean Motion15.67821588
Decay Rate0.00079391
L11 55713U 23026U 23085.16667824 .00079391 00000+0 69824-3 0 9992
L22 55713 43.0003 126.9085 0001676 246.8148 340.2465 15.67821588 5131



Live tracking and technical data element details for STARLINK-30063 (NORAD 55713). STARLINK-30063 can be tracked NOW for your location showing map with azimuth and elevation plus other details from your city location.







IsCatalogInMostPopularTable: catalog: 55713, numindb: 6
Update: records affected: 1



GetName: 55713 STARLINK-30063

Hit Count: updated at: Tue, 28 Mar 2023 02:23:23 GMT